Regional Weather Roundup
Issued by NWS

Home | Current Version | Previous Version | Graphics & Text | Print | Product List | Glossary On
Versions: 1 2 3 4 5 6 7 8 9 10 11 12 13 14 15 16 17 18 19 20 21 22 23 24 25 26 27 28 29 30 31 32 33 34 35 36 37 38 39 40 41 42 43 44 45 46 47 48 49 50
000
ASUS45 KBOU 031107
RWRCO

WEATHER ROUNDUP FOR COLORADO
NATIONAL WEATHER SERVICE DENVER/BOULDER CO
400 AM MST SAT DEC 03 2016

NOTE: "FAIR" INDICATES FEW OR NO CLOUDS BELOW 12000 FEET WITH NO
SIGNIFICANT WEATHER AND/OR OBSTRUCTIONS TO VISIBILITY.

COZ001>005-013-030-031-031200-
...NORTHWEST COLORADO...

CITY           SKY/WX    TMP DP  RH WIND       PRES   REMARKS
CRAIG          FAIR      11   6  81 W3        30.19S
HAYDEN         MOCLDY    16   9  73 CALM      30.16F
MEEKER         FAIR       3   0  87 CALM      30.19F
MOUNT WERNER   NOT AVBL
STEAMBOAT SPGS CLOUDY    15  12  90 CALM      30.15F
WALDEN           N/A      9   3  78 S6        30.06F WCI  -1
$$

COZ006>008-011-031200-
...WEST CENTRAL VALLEYS...

CITY           SKY/WX    TMP DP  RH WIND       PRES   REMARKS
GRAND JUNCTION FAIR      18  16  92 E3        30.20F
MONTROSE       CLOUDY    22  17  81 SE5       30.20F WCI  16
EAGLE          FLURRIES  20  17  88 CALM      30.17S
RIFLE          CLOUDY    22  15  75 W3        30.21F
DELTA          NOT AVBL
NUCLA          NOT AVBL
$$

COZ017>023-064>068-031200-
...SOUTHWEST COLORADO...

CITY           SKY/WX    TMP DP  RH WIND       PRES   REMARKS
DURANGO        FAIR      22  18  85 NE3       30.08S
CORTEZ         CLOUDY    20  18  92 NE5       30.10F WCI  13
PAGOSA SPRINGS FAIR      17  15  92 CALM      30.08F
TELLURIDE      FAIR      17  15  93 E3        30.08F
WOLF CREEK PAS SNOW      12  12 100 S8        30.07F VSB 1/2 WCI   1
$$

COZ009-010-012-014-032>034-037-058>063-031200-
...CENTRAL COLORADO...

CITY           SKY/WX    TMP DP  RH WIND       PRES   REMARKS
ASPEN          LGT SNOW  17  16  95 NW3       30.09F FOG
BUENA VISTA    CLOUDY     9   4  80 W5        30.07F WCI   0
COPPER MTN     NOT AVBL
BERTHOUD PASS    N/A      3  -9  55 MISG      29.87F
COTTONWOOD PAS SNOW      16  12  86 SE3       30.00F VSB 1/2
GUNNISON       FLURRIES  16  13  88 S5        30.12F WCI   9
KREMMLING      LGT SNOW  18  12  79 CALM      30.13S
LEADVILLE      MOCLDY     5   0  79 E6        29.99F WCI  -6
MONARCH PASS   CLOUDY    10   5  79 W41G48    30.07F WCI -15
SALIDA         MOCLDY    14  12  90 CALM      30.16F
SUNLIGHT       LGT SNOW N/A N/A N/A SW6       30.08F
WILKERSON PASS FAIR      10   7  85 SW16G29   29.97S FOG     WCI  -7
$$

COZ069>075-031200-
...SAN LUIS VALLEY/SANGRE DE CRISTO MOUNTAINS...

CITY           SKY/WX    TMP DP  RH WIND       PRES   REMARKS
ALAMOSA        CLOUDY    19  17  92 CALM      30.09F
LA VETA PASS   CLOUDY    18  14  86 NE13G26   30.01F FOG     WCI   4
SAGUACHE       FAIR      19  16  86 CALM      30.09S
$$

COZ035-036-038>040-031200-
...NORTHERN COLORADO FRONT RANGE...

CITY           SKY/WX    TMP DP  RH WIND       PRES   REMARKS
DENVER INTL AP FAIR      19  13  77 SW6       30.04F WCI  11
DMNS CITY PARK   N/A     20  14  78 SE7       30.04F WCI  11
AURORA         PTCLDY    17  13  86 SW5       30.04F WCI  10
FRONT RANGE AP FAIR      19  16  86 SW6       30.04F WCI  11
ERIE MUNI ARPT FAIR      15  13  91 CALM      30.05F
BOULDER MUN AP FAIR      19  18  93 SE5       30.03F WCI  13
CENTENNIAL     FAIR      16  11  80 W5        30.03F WCI   9
BROOMFIELD     FAIR      23  19  86 CALM      30.03F
FORT COLLINS   FAIR      19  18  93 NE6       30.05F WCI  11
LONGMONT       FAIR      20  15  81 CALM      30.07F
$$

COZ041-046-047-076>085-087-088-031200-
...PIKES PEAK/PALMER DIVIDE AND SOUTHERN FOOTHILLS...

CITY           SKY/WX    TMP DP  RH WIND       PRES   REMARKS
COLO. SPRINGS  FAIR      21  16  81 SE8       30.07F WCI  11
A. F. ACADEMY  FAIR      18  15  88 CALM      30.03F
SCHRIEVER AFB  NOT AVBL
ELLICOTT       CLOUDY   N/A N/A N/A S10       30.06F
FALCON         CLOUDY    22  18  85 S10       30.05F WCI  11
FORT CARSON    FAIR      23  18  82 S9        30.05F WCI  13
LIMON          FAIR      16  13  88 S12       30.08F WCI   3
MONUMENT HILL  FAIR      19  16  86 SW6G18    30.02F WCI  11
TRINIDAD       FAIR      15  12  88 W8        30.10F WCI   4
$$

COZ042>045-048>051-090-091-031200-
...NORTHEAST COLORADO...

CITY           SKY/WX    TMP DP  RH WIND       PRES   REMARKS
GREELEY ARPT   FAIR      12   9  87 N7        30.07F WCI   1
AKRON          FAIR      24  18  77 S13       30.08F WCI  12
BURLINGTON     FAIR      23  18  81 S10       30.13F WCI  12
WRAY           NOT AVBL
STERLING       FAIR      18  14  86 W5        30.09F WCI  11
HOLYOKE        FAIR      27  21  80 S6        30.13F WCI  20
FORT MORGAN    FAIR      18  15  87 S5        30.08F WCI  11
$$

COZ086-089-092>099-031200-
...SOUTHEAST COLORADO...

CITY           SKY/WX    TMP DP  RH WIND       PRES   REMARKS
PUEBLO         CLOUDY    29  21  72 E3        30.11F
LA JUNTA       FAIR      22  17  81 S5        30.14F WCI  16
LAMAR          MIX PCPN  27  19  72 SW3       30.14F
SPRINGFIELD      N/A     27  26  96 CALM      30.12F
$$



USA.gov is the U.S. government's official web portal to all federal, state and local government web resources and services.